Regional Weather Roundup
Issued by NWS Burlington, VT

Home | Current Version | Previous Version | Text Only | Print | Product List | Glossary On
Versions: 1 2 3 4 5 6 7 8 9 10 11 12 13 14 15 16 17 18 19 20 21 22 23 24 25 26 27 28 29 30 31 32 33 34 35 36 37 38 39 40 41 42 43 44 45 46 47 48 49 50
000
ASUS41 KBTV 280030
RWRBTV
VERMONT REGIONAL WEATHER ROUNDUP
NATIONAL WEATHER SERVICE BURLINGTON VT
700 PM EST SAT DEC 27 2014

NOTE: "FAIR" INDICATES FEW OR NO CLOUDS BELOW 12,000 FEET WITH NO
SIGNIFICANT WEATHER AND/OR OBSTRUCTIONS TO VISIBILITY.

* THESE REPORTS ARE NOT UNDER NWS QUALITY CONTROL AND/OR DO NOT
  REPORT WEATHER SUCH AS PRECIPITATION AND FOG.

VTZ001>019-280100-
_____VERMONT_____


CITY           SKY/WX    TMP DP  RH WIND       PRES   REMARKS
BURLINGTON     CLOUDY    45  33  63 S14G22    30.00F
6HR MIN TEMP:  43; 6HR MAX TEMP:  45;

MONTPELIER     CLOUDY    38  32  79 S7        30.07S
6HR MIN TEMP:  37; 6HR MAX TEMP:  41;

MORRISVILLE    CLOUDY    37  31  78 S3        30.03F
6HR MIN TEMP:  36; 6HR MAX TEMP:  42;

ST. JOHNSBURY*   N/A     38  32  79 MISG      30.04S
6HR MIN TEMP:  37; 6HR MAX TEMP:  41;

LYNDONVILLE*   CLOUDY    38  30  72 SE6       30.05S
6HR MIN TEMP:  37; 6HR MAX TEMP:  40;

MIDDLEBURY*    CLOUDY    44  34  67 S9        30.04F
6HR MIN TEMP:  41; 6HR MAX TEMP:  44;

RUTLAND*       CLOUDY    36  32  87 SE9       30.06F
6HR MIN TEMP:  36; 6HR MAX TEMP:  45;

SPRINGFIELD    PTCLDY    31  29  92 CALM      30.10R
6HR MIN TEMP:  30; 6HR MAX TEMP:  42;

HIGHGATE*      DRIZZLE   42  34  74 S9        29.98F
6HR MIN TEMP:  40; 6HR MAX TEMP:  42;

NEWPORT*       CLOUDY    37  31  77 S5        30.02S
6HR MIN TEMP:  36; 6HR MAX TEMP:  38;

BENNINGTON     PTCLDY    36  31  82 CALM      30.09R
6HR MIN TEMP:  35; 6HR MAX TEMP:  47;

MT. MANSFIELD*   N/A     32 N/A N/A CALM        N/A

_____LAKE CHAMPLAIN_____


CITY           SKY/WX    TMP DP  RH WIND       PRES   REMARKS
BURTON ISLAND*   N/A     41  34  75 S10         N/A
COLCHESTER RF*   N/A     43  36  75 SW22        N/A

$$

NYZ007-026>031-035-052-083-280100-
_____NORTHERN NEW YORK_____


CITY           SKY/WX    TMP DP  RH WIND       PRES   REMARKS
PLATTSBURGH    CLOUDY    40  33  76 CALM      29.99F
6HR MIN TEMP:  39; 6HR MAX TEMP:  42; 6HR PCP: TRACE;

SARANAC LAKE   CLOUDY    41  34  76 SW9       29.93F
6HR MIN TEMP:  38; 6HR MAX TEMP:  40;

MASSENA        CLOUDY    39  37  92 CALM      29.94F
6HR MIN TEMP:  39; 6HR MAX TEMP:  44; 6HR PCP:  0.02;

POTSDAM*       CLOUDY    48  39  71 S13       29.90F
WATERTOWN      CLOUDY    54  36  50 S12G25    29.92F
6HR MIN TEMP:  50; 6HR MAX TEMP:  54;

FT DRUM        MOCLDY    49  33  55 S10       29.93F
6HR MIN TEMP:  46; 6HR MAX TEMP:  49;

ALBANY         MOCLDY    45  32  60 S7        30.10R
6HR MIN TEMP:  43; 6HR MAX TEMP:  50;

GLENS FALLS    CLOUDY    35  31  85 CALM      30.07F
6HR MIN TEMP:  33; 6HR MAX TEMP:  46;


$$
NHZ002-005-011-280100-
_____NEW HAMPSHIRE_____


CITY           SKY/WX    TMP DP  RH WIND       PRES   REMARKS
LEBANON        PTCLDY    31  29  92 S3        30.08R
6HR MIN TEMP:  31; 6HR MAX TEMP:  45;

KEENE          PTCLDY    34  30  86 CALM      30.11R
6HR MIN TEMP:  34; 6HR MAX TEMP:  48;

MT WASHINGTON  FOG       23  23 100 W52         N/A  VSB 0   WCI   1
6HR MIN TEMP:  19; 6HR MAX TEMP:  24;

PLYMOUTH       CLOUDY    33  33 100 CALM      30.09S
6HR MIN TEMP:  32; 6HR MAX TEMP:  45;

WHITEFIELD     CLOUDY    35  30  82 CALM      30.04F
6HR MIN TEMP:  35; 6HR MAX TEMP:  41;


$$

_____REGIONAL QUEBEC LOCATIONS_____


CITY           SKY/WX    TMP DP  RH WIND       PRES   REMARKS
MONTREAL       CLOUDY    39  34  81 SE10      29.93
QUEBEC CITY    CLOUDY    34  27  75 CALM      30.02F
SHERBROOKE     CLOUDY    34  32  93 SE2       30.01F

_____REGIONAL ONTARIO LOCATIONS_____


CITY           SKY/WX    TMP DP  RH WIND       PRES   REMARKS
OTTAWA         CLOUDY    39  39 100 SE8       29.87F FOG

______KEY______
VSB  - VISIBILITY IN MILES
WCI  - WIND CHILL INDEX
HX   - HEAT INDEX
$$
NNNN


USA.gov is the U.S. government's official web portal to all federal, state and local government web resources and services.